This is the latest recevied weather packets stored in our database for station/object N7MLR. If no packets are shown the sender has not sent any weather packets the latest 10 day(s).
| Time | Temp. | Humidity | Pressure | Rain* | Wind** | Luminosity | Snow |
|---|---|---|---|---|---|---|---|
| 1777747682 | 20.56° C | 49% | 1021.3 hPa | 0 mm | - | 753 W/m² | - |
| 1777747377 | 21.11° C | 52% | 1021.4 hPa | 0 mm | - | 164 W/m² | - |
| 1777747074 | 21.11° C | 54% | 1021.4 hPa | 0 mm | - | 846 W/m² | - |
| 1777746770 | 20.56° C | 55% | 1021.6 hPa | 0 mm | - | 761 W/m² | - |
| 1777746466 | 20.56° C | 54% | 1021.7 hPa | 0 mm | - | 398 W/m² | - |
| 1777746161 | 21.11° C | 53% | 1021.4 hPa | 0 mm | - | 756 W/m² | - |
| 1777745858 | 21.11° C | 56% | 1021.5 hPa | 0 mm | - | 415 W/m² | - |
| 1777745558 | 21.11° C | 53% | 1021.8 hPa | 0 mm | - | 602 W/m² | - |
| 1777745254 | 21.11° C | 53% | 1021.7 hPa | 0 mm | - | 793 W/m² | - |
| 1777744951 | 21.11° C | 53% | 1021.8 hPa | 0 mm | - | 790 W/m² | - |
| 1777744646 | 21.11° C | 54% | 1022 hPa | 0 mm | - | 841 W/m² | - |
| 1777744341 | 20° C | 54% | 1022.1 hPa | 0 mm | - | 774 W/m² | - |
| 1777744038 | 21.11° C | 54% | 1022.1 hPa | 0 mm | - | 804 W/m² | - |
| 1777743735 | 20.56° C | 57% | 1022.2 hPa | 0 mm | - | 763 W/m² | - |
| 1777743432 | 19.44° C | 58% | 1022.2 hPa | 0 mm | - | 747 W/m² | - |
| 1777743129 | 20° C | 57% | 1022 hPa | 0 mm | - | 734 W/m² | - |
| 1777742828 | 20° C | 58% | 1022.3 hPa | 0 mm | - | 741 W/m² | - |
| 1777742523 | 20° C | 56% | 1022.4 hPa | 0 mm | - | 738 W/m² | - |
| 1777742219 | 20° C | 56% | 1022.4 hPa | 0 mm | - | 741 W/m² | - |
| 1777741916 | 20.56° C | 57% | 1022.7 hPa | 0 mm | - | 741 W/m² | - |
| 1777741613 | 19.44° C | 59% | 1022.7 hPa | 0 mm | - | 761 W/m² | - |
| 1777741310 | 19.44° C | 59% | 1022.7 hPa | 0 mm | - | 767 W/m² | - |
| 1777741006 | 18.89° C | 59% | 1022.5 hPa | 0 mm | - | 757 W/m² | - |
| 1777740704 | 18.89° C | 58% | 1022.5 hPa | 0 mm | - | 758 W/m² | - |
| 1777740399 | 18.89° C | 59% | 1022.7 hPa | 0 mm | - | 765 W/m² | - |
* Rain latest hour (hover to see other rain measurements)
** Current wind speed in m/s (hover to see current wind gust speed)